Location: Redwood Loop Observatory
(43.9900°N, 124.0900°W)
Time: 04:24:23
(UTC-08:00)

Envisat - Pass Details

Date: 21 October 2019
Orbit: 764 x 766 km, 98.1° (Epoch: 20 November)

Event Time Altitude Azimuth Distance (km) Brightness Sun altitude
Rises 19:52:21 0° 184° (S) 3,219 6.3 -16.8°
Reaches altitude 10° 19:54:46 10° 192° (SSW) 2,297 5.6 -17.2°
Maximum altitude 19:59:32 41° 262° (W) 1,096 4.3 -18.1°
Drops below altitude 10° 20:04:21 10° 333° (NNW) 2,313 5.9 -18.9°
Sets 20:06:48 0° 340° (NNW) 3,243 6.6 -19.4°
